DELTA 1 DEB

Satellite information

Favourite Embed

Satellite Type and Status

DEBRISIN ORBIT

Key statistics

Satellite DELTA 1 DEB at a glance.

Uptime

17291

Days in orbit

Revolutions

≈ 14.3

Per day

Orbit

SSO

Sun Synchronous Orbit

Inclination

98.8

Latest

Satellite identification and parameters

Extended collection of information and parameters for DELTA 1 DEB.

Object identification

Identified? True

Debris? True

Object name: DELTA 1 DEB

International designator: 1978-026JE

Object number (NORAD): 37643

Object ID (CCSDS): 37643

Country: UNITED STATES OF AMERICA (US)

Current information (Y/N): Y

RCS size: SMALL

Orbital parameters

Period: 100.723 minutes

Inclination: 98.7617 deg

SMA: 7171.004 km

Apoapsis: 824.23 km

Periapsis: 761.508 km

RAAN: 215.2972 deg

Eccentricy: 0.0043733

Argument of periapsis: 126.2864 deg

Mean anomaly: 234.2369 deg

Mean motion: 14.29660265 rev/day

Mean motion (dot): 0.00000504 rev/day2

B* drag term: 0.0002118 1/REarth

Two-line elements (TLE)

Creation date: July 6, 2025, 10:36 p.m.

Reference frame: TEME

Reference center: EARTH

Epoch: July 6, 2025, 9:15 p.m. UTC

TLE line 0: 0 DELTA 1 DEB

TLE line 1: 1 37643U 78026JE 25187.88570073 .00000504 00000-0 21180-3 0 9991

TLE line 2: 2 37643 98.7617 215.2972 0043733 126.2864 234.2369 14.29660265194824

Live tracking on map

Real-time ground track for satellite DELTA 1 DEB.

In-orbit conjunctions

A list of the most updated potential collisions computed for object DELTA 1 DEB.

Target Orbit TCA Probability of collision Miss distance Type
ERS 1 SSO 2024-12-21 21:30:30 0.0001527946 109.0 (m) PAYLOAD

Associated space launch

Earth observation satellite

DELTA 1 DEB was lifted into orbit during the mission ‘Delta 2910 | Landsat 3’, on board a Delta 2910 space rocket.

The launch took place on March 5, 1978, 5:54 p.m. from Space Launch Complex 2W.

For more information about the launch, click the button.

Launch to space Delta 2910 | Landsat 3
Delta 2910 | Landsat 3

Agency: N/A

Status: Launch Successful

Launch date: March 5, 1978, 5:54 p.m. UTC

Rocket: Delta 2910

Launch pad: Space Launch Complex 2W

Location: Vandenberg SFB, CA, USA

...

Latest news about this satellite

There are no fresh news available about this satellite. Check back as we update our databases every day.


Newsletter sign-up

Weekly statistics, charts and insights to help you stay on top of the space industry.